EHI
0 0 0 1 1 1 0 0 0 0 0 0 0 0 0 0 0 0 0 0 0 0 0 0 0 0 0 0 0 0 0 0 0 0 0 0 0 0 0 0 0 0 0
0 0 1 3 3 1 0 0 0 0 0 0 0 0 0 0 0 0 0 0 0 0 0 0 0 0 0 0 0 0 0 0 0 0 0 0 0 0 0 0 0 0 0
0 0 4 9 6 1 0 0 0 0 0 0 0 0 0 0 0 0 0 0 0 0 0 0 0 0 0 0 0 0 0 0 0 0 0 0 0 0 0 0 0 0 0
0 0 8 15 9 0 0 0 0 0 0 0 0 0 0 0 0 0 0 0 0 0 0 0 0 0 0 0 0 0 0 0 0 0 0 0 0 0 0 0 0 0 0
0 0 10 18 10 0 0 0 0 0 0 0 0 0 0 0 0 0 0 0 0 0 0 0 0 0 0 0 0 0 0 0 0 0 0 0 0 0 0 0 0 0 0
0 0 8 15 8 0 0 0 0 0 0 0 0 0 0 0 0 0 0 0 0 0 0 0 0 0 0 0 0 0 0 0 0 0 0 0 0 0 0 0 0 0 0
0 0 8 15 10 1 0 0 0 0 0 0 0 0 0 0 0 0 0 0 0 0 0 0 0 0 0 0 0 0 0 0 0 0 0 0 0 0 0 0 0 0 0
0 0 6 15 11 2 0 0 0 0 0 0 0 0 0 0 0 0 0 0 0 0 0 0 0 0 0 0 0 0 0 0 0 0 0 0 0 0 0 0 0 0 0
0 0 3 6 5 1 0 0 0 0 0 0 0 0 0 0 0 0 0 0 0 0 0 0 0 0 0 0 0 0 0 0 0 0 0 0 0 0 0 0 0 0 0
0 0 0 0 0 0 0 0 0 0 0 0 0 0 0 0 0 0 0 0 0 0 0 0 0 0 0 0 0 0 0 0 0 0 0 0 0 0 0 0 0 0 0
0 0 0 0 0 0 0 0 0 0 0 0 0 0 0 0 0 0 0 0 0 0 0 0 0 0 0 0 0 0 0 0 0 0 0 0 0 0 0 0 0 0 0
0 0 0 0 0 0 0 0 0 0 0 0 0 0 0 0 0 0 0 0 0 0 0 0 0 0 0 0 0 0 0 0 0 0 0 0 0 0 0 0 0 0 0
0 0 0 0 0 0 0 0 0 0 0 0 0 0 0 0 0 0 0 0 0 0 0 0 0 0 0 0 0 0 0 0 0 0 0 0 0 0 0 0 0 0 0
0 0 0 0 0 0 0 0 0 0 0 0 0 0 0 0 0 0 0 0 0 0 0 0 0 0 0 0 0 0 0 0 0 0 0 0 0 0 0 0 0 0 0
0 0 0 0 0 0 0 0 0 0 0 0 0 0 0 0 0 0 0 0 0 0 0 0 0 0 0 0 0 0 0 0 0 0 0 0 0 0 0 0 0 0 0
0 0 0 0 0 0 0 0 0 0 0 0 0 0 0 0 0 0 0 0 0 0 0 0 0 0 0 0 0 0 0 0 0 0 0 0 0 0 0 0 0 0 0
0 0 0 0 0 0 0 0 0 0 0 0 0 0 0 0 0 0 0 0 0 0 0 0 0 0 0 0 0 0 0 0 0 0 0 0 0 0 0 0 0 0 0
0 0 0 0 0 0 0 0 0 0 0 0 0 0 0 0 0 0 0 0 0 0 0 0 0 0 0 0 0 0 0 0 0 0 0 0 0 0 0 0 0 0 0
0 0 0 0 0 0 0 0 0 0 0 0 0 0 0 0 0 0 0 0 0 0 0 0 0 0 0 0 0 0 0 0 0 0 0 0 0 0 0 0 0 0 0
0 0 0 0 0 0 0 0 0 0 0 0 0 0 0 0 0 0 0 0 0 0 0 0 0 0 0 0 0 0 0 0 0 0 0 0 0 0 0 0 0 0 0
0 0 0 0 0 0 0 0 0 0 0 0 0 0 0 0 0 0 0 0 0 0 0 0 0 0 0 0 0 0 0 0 0 0 0 0 0 0 0 0 0 0 0
0 0 0 0 0 0 0 0 0 0 0 0 0 0 0 0 0 0 0 0 0 0 0 0 0 0 0 0 0 0 0 0 0 0 0 0 0 0 0 0 0 0 0
0 0 0 0 0 0 0 0 0 0 0 0 0 0 0 0 0 0 0 0 0 0 0 0 0 0 0 0 0 0 0 0 0 0 0 0 0 0 0 0 0 0 0
0 0 0 0 0 0 0 0 0 0 0 0 0 0 0 0 0 0 0 0 0 0 0 0 0 0 0 0 0 0 0 0 0 0 0 0 0 0 0 0 0 0 0
0 0 0 0 0 0 0 0 0 0 0 0 0 0 0 0 0 0 0 0 0 0 0 0 0 0 0 0 0 0 0 0 0 0 0 0 0 0 0 0 0 0 0
0 0 0 0 0 0 0 0 0 0 0 0 0 0 0 0 0 0 0 0 0 0 0 0 0 0 0 0 0 0 0 0 0 0 0 0 0 0 0 0 0 0 0
Wind_Speed
5 8 16 15 15 15 14 12 9 8 8 7 7 6 5 5 5 5 4 4 4 3 3 4 5 6 7 8 8 7 7 8 8 6 5 5 5 6 7 7 6 2 6
9 10 16 16 17 16 14 12 10 9 8 6 6 6 5 5 6 6 5 4 4 4 4 4 5 5 6 9 8 6 6 7 6 4 2 1 2 5 6 6 7 5 9
11 9 13 16 17 16 14 12 10 9 9 7 6 7 7 6 5 5 4 4 4 4 4 3 4 6 7 8 7 5 4 3 2 1 3 2 1 6 6 6 6 7 8
12 9 9 16 17 15 13 12 10 9 9 7 6 7 8 7 6 5 4 4 5 5 4 3 3 6 5 5 5 3 1 0 3 4 2 3 2 5 6 5 4 5 5
10 9 11 17 17 15 14 12 10 9 8 7 7 7 8 7 6 6 5 5 5 5 5 4 2 5 4 3 3 2 2 3 5 6 1 3 1 4 4 4 5 5 4
9 9 12 18 17 16 15 13 12 11 9 8 7 7 7 8 7 6 6 6 6 5 5 5 3 3 3 3 4 4 3 4 5 3 1 2 2 5 6 5 5 5 5
10 9 13 18 18 17 16 14 13 12 10 9 8 7 7 8 8 7 7 6 6 6 5 5 6 6 6 6 7 6 4 4 2 1 4 4 4 7 7 6 6 5 4
11 10 11 17 16 17 17 16 14 12 11 11 10 9 8 8 8 7 7 7 7 8 7 7 8 9 8 8 9 8 7 3 1 1 3 5 8 9 8 7 7 6 5
9 9 8 9 11 14 15 15 14 12 11 11 12 10 9 8 8 8 7 8 9 9 9 9 9 10 11 11 11 10 9 6 1 1 4 4 9 11 10 9 8 8 7
7 9 9 8 8 8 9 13 13 12 10 10 11 10 8 8 8 9 8 9 10 11 10 10 11 12 12 12 12 11 10 8 3 3 3 6 14 13 12 11 11 10 10
7 7 8 8 8 8 8 10 11 11 10 10 10 10 8 5 5 6 8 10 12 13 12 12 13 13 12 12 13 11 10 4 4 3 3 10 16 16 14 14 14 13 12
11 9 8 10 10 8 8 6 5 6 6 6 5 6 5 5 5 7 9 12 14 14 14 15 14 13 10 4 7 10 4 5 5 4 5 13 19 19 17 16 16 15 15
10 11 11 11 10 9 6 5 4 4 4 5 7 7 5 5 4 5 4 7 9 10 7 8 8 5 4 4 4 4 5 5 4 5 6 15 20 21 19 19 19 18 18
7 9 11 12 10 9 8 6 6 5 4 5 6 8 6 4 5 5 5 6 6 5 5 5 4 5 6 6 6 7 7 6 6 5 7 17 21 24 22 21 21 21 21
9 9 9 11 12 10 8 6 7 7 7 7 6 8 9 7 7 6 6 6 6 5 5 6 6 7 7 7 7 8 9 9 9 8 6 15 21 25 25 24 23 23 23
12 12 11 11 12 11 10 9 8 8 8 7 8 9 11 9 8 7 7 7 8 7 7 7 8 8 8 7 9 9 10 9 10 10 9 11 19 23 26 26 26 25 26
12 11 13 13 11 12 12 12 9 8 8 8 8 9 11 10 9 8 7 8 7 5 6 5 6 6 6 7 9 10 9 10 10 11 10 9 9 17 24 28 28 27 27
8 9 11 11 12 13 12 11 8 8 9 9 7 7 10 10 9 7 7 7 5 4 5 5 6 6 7 8 8 8 8 8 12 12 11 10 8 9 15 25 27 29 29
3 5 8 10 11 13 12 9 8 7 9 7 6 6 8 9 8 7 7 7 5 5 6 7 7 6 8 9 8 8 8 9 10 11 12 12 11 11 10 16 23 26 28
7 5 3 4 6 7 6 4 4 5 6 5 6 7 8 7 8 8 8 8 6 6 7 6 8 7 7 6 8 10 9 9 10 11 12 11 12 13 13 13 13 15 24
9 9 8 6 3 2 3 3 4 5 5 4 5 7 7 7 8 8 8 8 7 9 11 10 9 9 9 5 5 8 9 11 15 12 9 11 13 13 13 14 12 11 11
9 8 8 8 7 2 2 2 2 1 2 3 3 4 6 7 8 8 10 10 9 9 11 11 9 8 8 6 6 5 7 7 9 11 12 13 15 11 13 14 14 14 11
10 9 8 9 9 8 5 3 3 3 3 3 3 3 4 6 7 8 10 11 10 9 10 12 10 12 12 9 10 10 9 8 4 4 7 10 11 11 12 11 13 14 14
8 7 9 9 11 10 9 8 7 5 3 3 3 3 5 6 6 7 8 9 9 8 10 11 11 11 13 12 10 11 13 8 8 7 6 7 9 12 12 10 11 13 14
7 7 8 9 11 10 10 9 8 7 4 3 4 6 7 6 7 8 8 7 7 7 9 11 11 12 11 13 12 10 11 12 14 13 15 11 7 9 10 11 11 12 12
7 7 8 10 10 10 10 10 9 9 8 8 8 7 6 5 5 9 9 8 8 7 8 9 10 11 11 13 12 11 11 10 9 12 14 14 14 11 10 11 12 12 11
Wind_Direction
187 173 176 171 163 154 152 155 162 163 156 154 155 153 135 133 128 120 112 112 116 105 117 150 144 130 129 123 116 119 118 111 103 88 84 84 92 92 74 69 58 59 102
158 165 171 171 162 157 157 161 168 164 155 161 163 147 141 141 135 126 122 125 126 117 124 147 155 141 142 134 128 133 129 121 113 101 71 29 92 106 92 77 73 85 93
146 161 168 169 162 160 161 164 169 165 163 167 168 156 155 143 134 131 130 135 131 126 131 137 147 139 132 133 134 143 142 128 121 343 264 261 196 127 114 96 84 84 88
150 159 163 166 163 163 164 167 169 171 172 174 179 174 162 152 145 143 146 157 152 147 152 158 154 143 144 143 144 162 173 33 10 350 245 220 231 129 117 111 108 96 91
151 159 164 165 167 167 168 170 171 175 175 183 194 187 172 164 162 161 164 164 160 160 165 170 161 157 164 158 161 212 275 332 4 2 150 170 174 132 129 129 128 116 108
156 159 166 169 172 172 171 173 174 179 185 191 186 182 181 179 176 174 175 175 174 175 177 180 185 180 180 211 220 229 271 324 10 348 251 186 178 163 155 149 139 131 132
161 166 171 174 176 176 176 178 181 185 191 192 182 185 192 189 186 187 190 191 189 190 194 200 206 209 208 223 233 232 256 316 13 341 205 203 200 181 176 173 165 152 147
164 170 175 179 178 179 180 184 187 191 197 197 193 196 201 203 206 202 208 210 207 205 206 211 217 221 221 224 232 235 247 267 37 9 208 213 206 191 192 190 189 183 178
165 166 173 177 179 181 184 187 191 196 205 206 202 206 213 216 217 214 219 220 218 217 218 222 226 228 228 229 234 241 251 260 232 216 228 227 212 202 202 202 204 200 198
168 171 173 175 178 182 187 191 193 197 205 210 206 204 210 209 215 222 222 224 222 220 224 230 234 235 232 232 235 240 250 263 241 217 239 233 219 211 210 209 212 211 211
183 184 179 180 184 184 189 198 196 198 204 208 208 204 207 208 214 227 224 224 222 221 225 232 236 237 236 234 236 237 246 252 251 229 233 237 228 221 217 215 218 219 218
196 195 191 191 192 187 194 195 195 199 205 205 197 202 205 207 216 224 226 225 226 226 228 234 237 238 238 234 242 243 241 247 250 243 240 242 235 229 224 219 220 223 224
194 196 197 198 198 192 194 188 190 196 202 205 201 202 207 212 223 231 229 231 230 230 231 241 245 238 232 226 234 241 242 242 242 246 245 244 235 231 230 225 223 225 227
202 201 198 200 200 199 195 194 191 196 204 208 208 208 210 219 226 229 227 222 217 219 222 227 233 238 237 236 236 240 242 240 239 241 241 244 239 237 236 233 229 228 230
217 216 202 193 198 198 195 198 198 202 208 211 212 214 214 221 228 228 226 221 218 216 217 221 227 233 236 239 237 237 243 240 238 238 243 244 239 238 240 240 238 236 235
221 220 211 200 195 190 194 198 200 202 206 209 216 219 217 222 225 224 224 223 222 218 219 220 222 227 231 235 239 236 238 239 238 238 237 244 240 238 241 244 244 243 242
228 223 215 211 199 195 197 199 200 201 203 211 217 219 222 223 225 227 230 231 228 219 222 229 233 236 239 238 243 243 241 239 240 239 238 236 239 240 241 245 248 249 249
247 236 225 216 206 206 206 202 202 203 206 214 215 218 224 226 222 222 233 241 234 218 220 226 226 231 238 238 242 244 245 244 245 245 245 242 237 240 243 247 250 251 253
285 247 232 223 214 211 211 206 205 204 212 217 213 219 223 224 220 218 233 238 220 218 224 231 228 223 238 241 244 249 247 248 249 247 244 242 241 241 241 247 247 248 250
10 13 345 246 233 220 214 211 214 221 226 220 218 225 226 224 221 221 237 240 224 227 236 232 240 235 241 246 252 256 252 250 250 248 247 248 245 242 241 243 245 247 246
17 19 18 17 335 197 175 192 208 226 229 230 231 235 235 234 229 227 239 241 228 233 240 232 230 237 244 226 245 264 260 251 253 252 246 249 250 246 242 242 242 242 246
22 19 22 21 16 16 190 176 178 206 238 245 260 258 247 241 236 235 238 243 237 239 243 240 229 238 248 212 223 249 270 266 250 244 242 243 247 247 248 246 244 243 241
25 20 27 26 28 25 30 73 66 52 22 8 334 304 291 279 268 259 255 253 249 240 245 245 234 235 249 242 226 236 252 259 284 261 239 242 243 243 246 246 246 247 245
17 18 29 33 36 32 36 52 58 54 30 351 334 332 328 323 313 304 291 280 271 260 253 253 245 240 243 252 244 233 237 244 253 274 252 232 233 242 243 243 246 248 246
21 26 29 37 39 33 39 48 55 51 34 7 6 7 1 351 353 352 343 332 312 293 278 270 265 256 250 249 250 246 244 245 243 255 271 269 248 235 234 235 241 243 240
28 30 32 39 36 29 34 38 44 42 32 26 17 10 1 351 352 360 354 350 342 333 320 306 292 280 271 265 262 256 250 244 241 247 258 261 264 260 232 230 238 240 234